Home   Weather   Freiburg   Past weeks

Flag for Germany Past Weather in Freiburg, Baden-Württemberg, Germany — Yesterday and Last 2 Weeks

Now
10 °F

Passing clouds.


Feels Like: 10 °F
Forecast: 13 / 32 °F
Wind: 1 mph from Northeast

Location: Freiburg

Current Time: Jan 21, 2017 at 7:32:54 am

Latest Report: Jan 21, 2017 at 6:00 am


Visibility: 2 mi

Pressure: 30.48 "Hg

Humidity: 92%

Dew Point: 8 °F

Location of FreiburgLocation

Past Weather in Freiburg — Graph

°F

Freiburg Temperature Yesterday

Maximum temperature yesterday: 28 °F (at 3:00 pm)
Minimum temperature yesterday: 9 °F (at 6:00 am)
Average temperature yesterday: 17 °F

High & Low Weather Summary for the Past Weeks

 TemperatureHumidityPressure
High49 °F (Jan 13, 12:00 am)100% (Jan 8, 11:00 pm)30.76 "Hg (Jan 8, 11:00 pm)
Low6 °F (Jan 7, 2:00 am)53% (Jan 18, 2:00 pm)29.44 "Hg (Jan 12, 11:00 pm)
Average28 °F85%30.29 "Hg
* Reported Jan 6 6:00 am — Jan 21 6:00 am, Freiburg, Weather by CustomWeather, © 2017

Note: Actual official high and low records may vary slightly from our data, if they occured in-between our weather recording intervals... More about our weather records

Advertising

Freiburg Weather History for the Previous 24 Hours

Scroll right to see more
 ConditionsComfort  
Time TempWeatherWind HumidityBarometerVisibility
6:00 am
Sat, Jan 21
10 °FPassing clouds.1 mph92%30.48 "Hg2 mi
5:00 am10 °FClear.No wind96%30.49 "Hg0 mi
3:00 am12 °FClear.1 mph94%30.50 "Hg1 mi
2:00 am10 °FPassing clouds.1 mph95%30.50 "Hg0 mi
12:00 am12 °FClear.1 mph92%30.52 "Hg1 mi
11:00 pm
Fri, Jan 20
11 °FClear.1 mph92%30.53 "Hg1 mi
9:00 pm16 °FPassing clouds.1 mph95%30.51 "Hg2 mi
8:00 pm16 °FFog.No wind97%30.51 "Hg1 mi
6:00 pm21 °FFog.1 mph84%30.50 "Hg3 mi
5:00 pm25 °FSunny.1 mph71%30.49 "Hg4 mi
3:00 pm28 °FSunny.2 mph66%30.48 "Hg4 mi
2:00 pm28 °FSunny.2 mph66%30.49 "Hg3 mi
12:00 pm23 °FFog.1 mph81%30.54 "Hg3 mi
11:00 am22 °FFog.1 mph88%30.54 "Hg3 mi
9:00 am12 °FFog.No wind94%30.55 "Hg2 mi
8:00 am10 °FFog.1 mph92%30.56 "Hg2 mi
Weather by CustomWeather, © 2017

See weather overviewHow to use our weather pages